Flag for U.S.A. Weather past 2 weeks in Sandpoint, Idaho, U.S.A.

Now
61 °F

Partly cloudy.


Feels Like: 61 °F
Forecast: 51 / 62 °F
Wind: 6 mph from Southwest

Location: Sandpoint Airport

Current Time: Jul 23, 2014 at 10:02:36 PM

Latest Report: Jul 23, 2014 at 9:35 PM


Visibility: 10 mi

Pressure: 30.01 "Hg

Humidity: 100%

Dew point: 61 °F

Location of SandpointLocation

Historic Weather in Sandpoint — Graph

°F

Sandpoint temperature yesterday

Maximum temperature yesterday: 72 °F (at 4:55 PM)
Minimum temperature yesterday: 52 °F (at 1:15 AM)
Average temperature yesterday: 60 °F

Past Weeks' High & Low Weather Summary

 TemperatureHumidityPressure
High93 °F (Jul 13, 4:15 PM)100% (Jul 10, 4:35 AM)30.18 "Hg (Jul 10, 4:35 AM)
Low50 °F (Jul 10, 4:35 AM)18% (Jul 12, 3:35 PM)29.74 "Hg (Jul 17, 7:55 PM)
Average69 °F64%29.95 "Hg
* Reported Jul 9 8:15 AM — Jul 23 8:55 PM, Sandpoint, Weather by CustomWeather, © 2014

Note: Actual official high and low records may vary slightly from our data, if they occured in-between our weather recording intervals... More about our weather records

Advertising

Sandpoint weather history for previous 24 hours

 ConditionsComfort  
Time TempWeatherWind HumidityBarometerVisibility
8:55 PM
Jul 23
63 °FMore clouds than sun.9 mph94%29.99 "Hg10 mi
8:35 PM63 °FMostly cloudy.13 mph100%29.98 "Hg10 mi
8:15 PM63 °FMostly cloudy.9 mph100%29.97 "Hg10 mi
7:55 PM63 °FOvercast.6 mph100%29.97 "Hg10 mi
7:35 PM64 °FRain. Cloudy.5 mph94%29.95 "Hg10 mi
7:15 PM63 °FBroken clouds.3 mph100%29.96 "Hg10 mi
6:55 PM63 °FSunny.7 mph100%29.95 "Hg10 mi
6:35 PM64 °FLight rain. Scattered clouds.7 mph94%29.95 "Hg10 mi
5:55 PM63 °FLight rain. Cloudy.8 mph94%29.97 "Hg10 mi
5:35 PM63 °FLight rain. More clouds than sun.9 mph94%29.94 "Hg4 mi
5:15 PM77 °FLight rain. Broken clouds.12 mph42%29.81 "Hg10 mi
4:55 PM79 °FSunny.No wind48%29.79 "Hg10 mi
4:35 PM81 °FSunny.No wind42%29.81 "Hg10 mi
4:15 PM82 °FSunny.No wind37%29.83 "Hg10 mi
3:55 PM82 °FSunny.3 mph37%29.84 "Hg10 mi
3:35 PM81 °FSunny.No wind39%29.86 "Hg10 mi
3:15 PM84 °FSunny.6 mph35%29.87 "Hg10 mi
2:55 PM82 °FSunny.5 mph37%29.88 "Hg10 mi
2:35 PM81 °FSunny.6 mph39%29.89 "Hg10 mi
2:15 PM82 °FSunny.3 mph37%29.90 "Hg10 mi
1:55 PM81 °FSunny.No wind39%29.91 "Hg10 mi
1:35 PM81 °FSunny.5 mph39%29.92 "Hg10 mi
1:15 PM81 °FSunny.3 mph39%29.94 "Hg10 mi
12:55 PM81 °FSunny.No wind39%29.95 "Hg10 mi
12:15 PM79 °FSunny.5 mph42%29.96 "Hg10 mi
11:55 AM79 °FSunny.7 mph45%29.97 "Hg10 mi
11:15 AM75 °FSunny.12 mph50%29.98 "Hg10 mi
10:55 AM73 °FSunny.15 mph53%29.99 "Hg10 mi
10:15 AM72 °FSunny.13 mph57%30.01 "Hg10 mi
9:55 AM72 °FSunny.12 mph57%30.01 "Hg10 mi
9:15 AM70 °FSunny.13 mph60%30.03 "Hg10 mi
8:55 AM68 °FSunny.8 mph64%30.04 "Hg10 mi
8:35 AM68 °FScattered clouds.9 mph64%30.04 "Hg10 mi
8:15 AM66 °FPartly sunny.13 mph68%30.05 "Hg10 mi
7:55 AM64 °FPartly sunny.15 mph73%30.05 "Hg10 mi
7:15 AM63 °FSunny.15 mph73%30.06 "Hg10 mi
6:55 AM61 °FScattered clouds.12 mph77%30.07 "Hg10 mi
6:35 AM59 °FScattered clouds.8 mph88%30.07 "Hg10 mi
6:15 AM59 °FScattered clouds.10 mph88%30.07 "Hg10 mi
3:35 AM61 °FClear.12 mph77%30.09 "Hg10 mi
3:15 AM61 °FClear.10 mph77%30.10 "Hg10 mi
2:15 AM59 °FClear.6 mph100%30.15 "Hg10 mi
1:55 AM59 °FClear.3 mph100%30.14 "Hg10 mi
12:55 AM61 °FClear.6 mph83%30.14 "Hg10 mi
10:55 PM
Jul 22
59 °FClear.No wind100%30.13 "Hg10 mi
10:15 PM61 °FClear.No wind94%30.12 "Hg10 mi
Weather by CustomWeather, © 2014

See weather overviewHow to use our weather pages